Location: Brompton
(51.4000°N, 0.5333°E)
Time: 02:52:12
(UTC+00:00)

Cosmos 1933 - Pass Details

Date: 11 May 2021
Orbit: 547 x 563 km, 82.5° (Epoch: 13 June)

Event Time Altitude Azimuth Distance (km) Brightness Sun altitude
Rises 20:08:57 0° 180° (S) 2,726 6.5 -4.9°
Reaches altitude 10° 20:11:08 10° 178° (S) 1,833 5.6 -5.2°
Maximum altitude 20:15:07 64° 97° (E) 620 3.4 -5.7°
Drops below altitude 10° 20:19:07 10° 16° (NNE) 1,840 6.3 -6.2°
Sets 20:21:18 0° 13° (NNE) 2,737 7.3 -6.4°
